GW1213 Weather Reports


time (UTC)temp
F
wind
direction
speed
knots
gust
knots
rain 1hr
in
rain 24hr
in
rain mn
in
humidity
%
barometer
mb
20260903200537 91 147 0.9 3.5 0.00 0.00 0.00 66 1014.1
20260903200108 91 271 0.0 3.5 0.00 0.00 0.00 67 1014.2
20260903195534 91 247 0.0 3.5 0.00 0.00 0.00 67 1014.3
20260903195041 91 0 0.0 3.5 0.00 0.00 0.00 67 1014.3
20260903194602 91 0 0.0 0.0 0.00 0.00 0.00 68 1014.3
20260903194037 91 0 0.0 1.7 0.00 0.00 0.00 69 1014.3
20260903193535 90 0 0.0 2.6 0.00 0.00 0.00 70 1014.5
20260903193103 90 0 0.0 2.6 0.00 0.00 0.00 68 1014.6
20260903192538 90 244 0.0 3.5 0.00 0.00 0.00 67 1014.7
20260903192034 89 0 0.9 3.5 0.00 0.00 0.00 70 1014.8
20260903191604 89 0 0.0 1.7 0.00 0.00 0.00 69 1015.0
20260903191037 88 0 0.0 4.3 0.00 0.00 0.00 70 1014.9
20260903190537 88 0 0.0 4.3 0.00 0.00 0.00 71 1014.8
20260903190058 88 0 0.0 2.6 0.00 0.00 0.00 72 1014.8
20260903185537 88 209 0.0 2.6 0.00 0.00 0.00 72 1014.8
20260903185037 88 176 0.0 2.6 0.00 0.00 0.00 72 1014.9
20260903184604 88 0 0.0 2.6 0.00 0.00 0.00 73 1015.1
20260903184037 88 263 0.0 2.6 0.00 0.00 0.00 74 1015.1
20260903183541 87 0 0.0 2.6 0.00 0.00 0.00 73 1015.1
20260903183120 87 0 0.0 0.0 0.00 0.00 0.00 73 1015.1
20260903182538 87 0 0.0 0.0 0.00 0.00 0.00 74 1015.2
20260903182035 87 0 0.0 0.0 0.00 0.00 0.00 74 1015.3
20260903181636 87 0 0.0 0.0 0.00 0.00 0.00 74 1015.3
20260903181040 87 0 0.0 0.0 0.00 0.00 0.00 73 1015.4
20260903180537 87 0 0.0 0.0 0.00 0.00 0.00 72 1015.5
20260903180059 87 0 0.0 0.9 0.00 0.00 0.00 72 1015.7
20260903175537 87 0 0.0 0.9 0.00 0.00 0.00 74 1015.6
20260903175041 87 0 0.0 0.9 0.00 0.00 0.00 73 1015.6
20260903174604 87 0 0.0 0.9 0.00 0.00 0.00 74 1015.6
20260903174037 87 0 0.0 1.7 0.00 0.00 0.00 73 1015.6
20260903173538 87 0 0.0 2.6 0.00 0.00 0.00 73 1015.8
20260903173110 87 348 0.9 2.6 0.00 0.00 0.00 74 1015.9
20260903172538 87 360 0.0 2.6 0.00 0.00 0.00 75 1016.0
20260903172034 86 0 0.0 2.6 0.00 0.00 0.00 76 1016.2
20260903171602 86 28 0.0 2.6 0.00 0.00 0.00 76 1016.2
20260903171034 85 352 0.0 2.6 0.00 0.00 0.00 77 1016.3
20260903170537 85 0 0.0 1.7 0.00 0.00 0.00 78 1016.4
20260903170059 84 0 0.0 2.6 0.00 0.00 0.00 80 1016.4
20260903165538 83 11 0.0 3.5 0.00 0.00 0.00 81 1016.5
20260903165040 82 71 0.9 3.5 0.00 0.00 0.00 82 1016.5
20260903164605 82 0 0.9 4.3 0.00 0.00 0.00 81 1016.4
20260903164039 82 68 2.6 4.3 0.00 0.00 0.00 81 1016.3
20260903163538 82 69 1.7 4.3 0.00 0.00 0.00 81 1016.3
20260903163102 82 77 0.0 1.7 0.00 0.00 0.00 81 1016.6
20260903162538 82 0 0.9 1.7 0.00 0.00 0.00 82 1016.6
20260903162035 82 0 0.0 2.6 0.00 0.00 0.00 82 1016.6
20260903161617 82 0 0.0 3.5 0.00 0.00 0.00 82 1016.8
20260903161041 82 0 0.9 3.5 0.00 0.00 0.00 82 1016.8
20260903160537 82 71 0.0 3.5 0.00 0.00 0.00 82 1017.0
20260903160058 81 196 0.9 3.5 0.00 0.00 0.00 84 1017.0
20260903155537 80 0 0.9 2.6 0.00 0.00 0.00 87 1017.1
20260903155037 80 0 0.9 2.6 0.00 0.00 0.00 87 1017.0
20260903154602 79 196 0.0 2.6 0.00 0.00 0.00 88 1017.1
20260903154038 79 0 0.0 0.0 0.00 0.00 0.00 88 1017.3
20260903153538 78 0 0.0 0.0 0.00 0.00 0.00 89 1017.4
20260903153102 78 0 0.0 0.0 0.00 0.00 0.00 89 1017.3
20260903152538 78 0 0.0 0.0 0.00 0.00 0.00 90 1017.4
20260903152038 78 0 0.0 0.0 0.00 0.00 0.00 91 1017.4
20260903151604 77 0 0.0 0.0 0.00 0.00 0.00 91 1017.3
20260903151037 77 0 0.0 0.0 0.00 0.00 0.00 91 1017.3
20260903150535 77 0 0.0 0.9 0.00 0.00 0.00 91 1017.1
20260903150108 77 0 0.0 2.6 0.00 0.00 0.00 91 1017.0
20260903145537 77 0 0.0 2.6 0.00 0.00 0.00 92 1016.9
20260903145038 76 0 0.9 2.6 0.00 0.00 0.00 92 1016.9
20260903144600 76 0 0.9 2.6 0.00 0.00 0.00 92 1016.8
20260903144037 76 74 0.9 3.5 0.00 0.00 0.00 93 1016.7
20260903143539 76 71 0.0 3.5 0.00 0.00 0.00 93 1016.7
20260903143101 76 0 0.0 3.5 0.00 0.00 0.00 93 1016.8
20260903142541 76 0 0.0 2.6 0.00 0.00 0.00 93 1017.0
20260903142038 76 0 0.0 2.6 0.00 0.00 0.00 94 1016.8
20260903141600 76 0 0.0 2.6 0.00 0.00 0.00 93 1016.8
20260903141041 76 0 0.0 2.6 0.00 0.00 0.00 93 1016.9
20260903140538 76 0 0.0 0.0 0.00 0.00 0.00 93 1017.0
20260903140109 76 0 0.0 0.0 0.00 0.00 0.00 94 1017.0
20260903135537 75 0 0.0 0.0 0.00 0.00 0.00 94 1017.0
20260903135037 75 0 0.0 0.0 0.00 0.00 0.00 94 1016.9
20260903134610 75 0 0.0 0.0 0.00 0.00 0.00 94 1016.8
20260903134038 75 0 0.0 0.0 0.00 0.00 0.00 94 1016.8
20260903133538 75 0 0.0 2.6 0.00 0.00 0.00 94 1016.8
20260903133102 75 0 0.0 2.6 0.00 0.00 0.00 94 1016.9
20260903132537 75 86 0.0 1.7 0.00 0.00 0.00 94 1017.1
20260903132037 75 0 0.0 2.6 0.00 0.00 0.00 94 1017.2
20260903131559 75 0 0.0 2.6 0.00 0.00 0.00 94 1017.2
20260903131038 75 0 0.0 2.6 0.00 0.00 0.00 95 1017.1
20260903130537 75 20 0.0 0.0 0.00 0.00 0.00 95 1017.3
20260903130104 75 0 0.0 0.0 0.00 0.00 0.00 95 1017.4
20260903125538 75 0 0.0 0.0 0.00 0.00 0.00 96 1017.5
20260903125038 75 0 0.0 0.9 0.00 0.00 0.00 96 1017.5
20260903124606 74 0 0.0 1.7 0.00 0.00 0.00 96 1017.5
20260903124037 74 331 0.0 3.5 0.00 0.00 0.00 96 1017.5
20260903123537 74 0 0.9 3.5 0.00 0.00 0.00 96 1017.5
20260903123058 74 338 1.7 3.5 0.00 0.00 0.00 96 1017.5
20260903122538 74 313 0.0 0.0 0.00 0.00 0.00 97 1017.4
20260903122039 74 0 0.0 0.0 0.00 0.00 0.00 97 1017.5
20260903121601 74 0 0.0 0.0 0.00 0.00 0.00 97 1017.1
20260903121040 74 0 0.0 0.0 0.00 0.00 0.00 97 1017.0
20260903120540 74 0 0.0 0.0 0.00 0.00 0.00 97 1017.0
20260903120106 74 0 0.0 0.0 0.00 0.00 0.00 97 1016.7
20260903115538 74 0 0.0 0.0 0.00 0.00 0.00 97 1016.7
20260903115035 74 0 0.0 0.0 0.00 0.00 0.00 97 1016.6
20260903114601 74 0 0.0 0.0 0.00 0.00 0.00 97 1016.6
20260903114037 74 0 0.0 0.0 0.00 0.00 0.00 97 1016.6
20260903113542 74 0 0.0 0.0 0.00 0.00 0.00 97 1016.5
20260903113059 73 0 0.0 0.0 0.00 0.00 0.00 97 1016.4
20260903112538 73 0 0.0 0.0 0.00 0.00 0.00 97 1016.4
20260903112038 73 0 0.0 0.0 0.00 0.00 0.00 97 1016.3
20260903111558 73 0 0.0 0.0 0.00 0.00 0.00 97 1016.3
20260903111038 73 0 0.0 0.0 0.00 0.00 0.00 96 1016.2
20260903110538 73 0 0.0 0.0 0.00 0.00 0.00 96 1016.0
20260903105538 73 0 0.0 0.0 0.00 0.00 0.00 96 1015.8
20260903105038 73 0 0.0 0.0 0.00 0.00 0.00 96 1015.8
20260903104602 73 0 0.0 0.0 0.00 0.00 0.00 96 1015.7
20260903104037 73 0 0.0 0.0 0.00 0.00 0.00 96 1015.7
20260903103536 73 0 0.0 0.0 0.00 0.00 0.00 96 1015.7
20260903103100 73 0 0.0 0.0 0.00 0.00 0.00 96 1015.7
20260903102534 73 0 0.0 0.0 0.00 0.00 0.00 96 1015.6
20260903102037 73 0 0.0 0.0 0.00 0.00 0.00 96 1015.6
20260903101557 73 0 0.0 0.0 0.00 0.00 0.00 96 1015.6
20260903101037 73 0 0.0 0.0 0.00 0.00 0.00 96 1015.6
20260903100537 73 0 0.0 0.0 0.00 0.00 0.00 96 1015.6
20260903095535 73 0 0.0 0.0 0.00 0.00 0.00 96 1015.7
20260903095037 73 0 0.0 0.0 0.00 0.00 0.00 96 1015.7
20260903094610 73 0 0.0 0.0 0.00 0.00 0.00 96 1015.8
20260903094038 73 0 0.0 0.0 0.00 0.00 0.00 96 1015.9
20260903093541 73 0 0.0 0.0 0.00 0.00 0.00 96 1015.9
20260903093103 73 0 0.0 0.0 0.00 0.00 0.00 96 1015.9
20260903092537 73 0 0.0 0.0 0.00 0.00 0.00 96 1015.9
20260903092035 73 0 0.0 0.0 0.00 0.00 0.00 96 1015.7
20260903091603 72 0 0.0 0.0 0.00 0.00 0.00 96 1015.8
20260903091041 72 0 0.0 0.0 0.00 0.00 0.00 96 1015.8
20260903090535 72 0 0.0 0.0 0.00 0.00 0.00 95 1015.8
20260903085539 72 0 0.0 0.0 0.00 0.00 0.00 96 1015.8
20260903085037 73 0 0.0 0.0 0.00 0.00 0.00 96 1015.7
20260903084600 73 0 0.0 0.0 0.00 0.00 0.00 96 1015.7
20260903084038 73 0 0.0 0.0 0.00 0.00 0.00 96 1015.6
20260903083539 73 0 0.0 0.0 0.00 0.00 0.00 96 1015.5
20260903083106 73 0 0.0 0.0 0.00 0.00 0.00 95 1015.6
20260903082541 73 0 0.0 0.0 0.00 0.00 0.00 95 1015.5
20260903082040 73 0 0.0 0.0 0.00 0.00 0.00 95 1015.6
20260903081601 73 0 0.0 0.0 0.00 0.00 0.00 95 1015.6
20260903081041 73 0 0.0 0.0 0.00 0.00 0.00 95 1015.7
20260903080537 73 0 0.0 0.0 0.00 0.00 0.00 95 1015.5
20260903075538 73 0 0.0 0.0 0.00 0.00 0.00 95 1015.6
20260903075041 73 0 0.0 0.0 0.00 0.00 0.00 95 1015.6
20260903074558 73 0 0.0 0.0 0.00 0.00 0.00 95 1015.6
20260903074036 73 0 0.0 0.0 0.00 0.00 0.00 95 1015.6
20260903073536 73 0 0.0 0.0 0.00 0.00 0.00 95 1015.4
20260903073110 73 0 0.0 0.0 0.00 0.00 0.00 95 1015.4
20260903072538 73 0 0.0 0.0 0.00 0.00 0.00 95 1015.3
20260903072038 73 0 0.0 0.0 0.00 0.00 0.00 95 1015.3
20260903071601 73 0 0.0 0.0 0.00 0.00 0.00 95 1015.4
20260903071035 73 0 0.0 0.0 0.00 0.00 0.00 95 1015.3
20260903070540 73 0 0.0 0.0 0.00 0.00 0.00 95 1015.3
20260903070108 73 0 0.0 0.0 0.00 0.00 0.00 95 1015.4
20260903065535 73 0 0.0 0.0 0.00 0.00 0.00 95 1015.5
20260903065038 73 0 0.0 0.0 0.00 0.00 0.00 95 1015.6
20260903064557 73 0 0.0 0.0 0.00 0.00 0.00 95 1015.6
20260903064035 73 0 0.0 0.0 0.00 0.00 0.00 95 1015.7
20260903063539 73 0 0.0 0.0 0.00 0.00 0.00 94 1015.8
20260903063125 73 0 0.0 0.0 0.00 0.00 0.00 94 1015.7
20260903062538 73 0 0.0 0.0 0.00 0.00 0.00 94 1015.9
20260903062036 73 0 0.0 0.0 0.00 0.00 0.00 94 1016.0
20260903061559 73 0 0.0 0.0 0.00 0.00 0.00 94 1016.1
20260903061035 73 0 0.0 0.0 0.00 0.00 0.00 94 1016.1
20260903060534 73 0 0.0 0.0 0.00 0.00 0.00 94 1016.1
20260903060104 73 0 0.0 0.0 0.00 0.00 0.00 94 1016.2
20260903055536 73 0 0.0 0.0 0.00 0.00 0.00 94 1016.3
20260903055035 73 0 0.0 0.0 0.00 0.00 0.00 94 1016.3
20260903054558 73 0 0.0 0.0 0.00 0.00 0.00 94 1016.5
20260903054037 73 0 0.0 0.0 0.00 0.00 0.00 94 1016.5
20260903053536 73 0 0.0 0.0 0.00 0.00 0.00 94 1016.5
20260903053059 73 0 0.0 0.0 0.00 0.00 0.00 94 1016.6
20260903052536 73 0 0.0 0.0 0.00 0.00 0.00 94 1016.4
20260903052035 73 0 0.0 0.0 0.00 0.00 0.00 94 1016.4
20260903051604 73 0 0.0 0.0 0.00 0.00 0.00 94 1016.5
20260903051038 74 0 0.0 0.0 0.00 0.00 0.00 94 1016.6
20260903050542 74 0 0.0 0.0 0.00 0.00 0.00 94 1016.6
20260903050104 74 0 0.0 0.0 0.00 0.00 0.00 94 1016.7
20260903045536 74 0 0.0 0.0 0.00 0.00 0.00 94 1016.6
20260903045038 74 0 0.0 0.0 0.00 0.00 0.00 94 1016.7
20260903044558 74 0 0.0 0.0 0.00 0.00 0.00 93 1016.7
20260903044039 74 0 0.0 0.0 0.00 0.00 0.00 93 1016.7
20260903043538 74 0 0.0 0.0 0.00 0.00 0.00 93 1016.7
20260903043108 74 0 0.0 0.0 0.00 0.00 0.00 93 1016.7
20260903042534 74 0 0.0 0.0 0.00 0.00 0.00 93 1016.8
20260903042035 74 0 0.0 0.0 0.00 0.00 0.00 93 1016.8
20260903041606 74 0 0.0 0.0 0.00 0.00 0.00 93 1016.6
20260903041034 74 0 0.0 0.0 0.00 0.00 0.00 93 1016.6
20260903040540 74 0 0.0 0.0 0.00 0.00 0.00 93 1016.7
20260903040105 74 0 0.0 0.0 0.00 0.00 0.00 93 1016.6
20260903035535 74 0 0.0 0.0 0.00 0.00 0.00 93 1016.7
20260903035035 74 0 0.0 0.0 0.00 0.00 0.00 93 1016.7
20260903034558 74 0 0.0 0.0 0.00 0.00 0.00 93 1016.7
20260903034036 74 0 0.0 0.0 0.00 0.00 0.00 93 1016.6
20260903033535 74 0 0.0 0.0 0.00 0.00 0.00 94 1016.5
20260903033058 74 0 0.0 0.0 0.00 0.00 0.00 94 1016.4
20260903032535 75 0 0.0 0.0 0.00 0.00 0.00 93 1016.4
20260903032037 75 0 0.0 0.0 0.00 0.00 0.00 93 1016.2
20260903031600 75 0 0.0 0.0 0.00 0.00 0.00 93 1016.1
20260903031038 75 0 0.0 0.0 0.00 0.00 0.00 93 1016.1
20260903030540 75 0 0.0 0.0 0.00 0.00 0.00 93 1016.1
20260903030110 75 0 0.0 0.0 0.00 0.00 0.00 93 1016.1
20260903025535 75 0 0.0 0.0 0.00 0.00 0.00 93 1016.0
20260903025035 75 0 0.0 0.0 0.00 0.00 0.00 93 1016.0
20260903024558 75 0 0.0 0.0 0.00 0.00 0.00 92 1015.9
20260903024037 75 0 0.0 0.0 0.00 0.00 0.00 92 1016.0
20260903023535 75 0 0.0 0.0 0.00 0.00 0.00 91 1015.9
20260903023101 75 0 0.0 0.0 0.00 0.00 0.00 92 1015.9
20260903022536 75 0 0.0 0.0 0.00 0.00 0.00 91 1015.9
20260903022038 75 0 0.0 0.0 0.00 0.00 0.00 91 1015.8
20260903021604 75 0 0.0 0.0 0.00 0.00 0.00 91 1015.9
20260903021038 75 0 0.0 0.0 0.00 0.00 0.00 91 1016.0
20260903020537 75 0 0.0 0.0 0.00 0.00 0.00 91 1016.2
20260903020059 75 0 0.0 0.0 0.00 0.00 0.00 90 1016.3
20260903015538 75 0 0.0 0.0 0.00 0.00 0.00 90 1016.4
20260903015036 75 0 0.0 0.0 0.00 0.00 0.00 91 1016.4
20260903014601 75 0 0.0 0.0 0.00 0.00 0.00 91 1016.5
20260903014045 75 0 0.0 0.0 0.00 0.00 0.00 90 1016.6
20260903013538 75 0 0.0 0.0 0.00 0.00 0.00 90 1016.5
20260903013057 75 0 0.0 0.0 0.00 0.00 0.00 90 1016.5
20260903012541 75 0 0.0 0.0 0.00 0.00 0.00 90 1016.4
20260903012035 75 0 0.0 0.0 0.00 0.00 0.00 90 1016.3
20260903011606 76 0 0.0 0.0 0.00 0.00 0.00 89 1016.4
20260903011038 76 0 0.0 0.0 0.00 0.00 0.00 89 1016.4
20260903010542 76 0 0.0 0.0 0.00 0.00 0.00 89 1016.7
20260903010058 76 0 0.0 0.0 0.00 0.00 0.00 88 1016.7
20260903005539 76 0 0.0 0.0 0.00 0.00 0.00 88 1016.7
20260903005036 76 0 0.0 0.0 0.00 0.00 0.00 88 1016.8
20260903004609 76 0 0.0 0.0 0.00 0.00 0.00 88 1016.6
20260903004038 76 0 0.0 0.0 0.00 0.00 0.00 88 1016.6
20260903003537 76 0 0.0 0.0 0.00 0.00 0.00 88 1016.7
20260903003059 76 0 0.0 0.0 0.00 0.00 0.00 87 1016.4
20260903002535 76 0 0.0 0.0 0.00 0.00 0.00 87 1016.3
20260903002038 76 0 0.0 0.0 0.00 0.00 0.00 87 1016.2
20260903001602 76 0 0.0 0.0 0.00 0.00 0.00 87 1016.1
20260903001040 77 0 0.0 0.0 0.00 0.00 0.00 87 1016.4
20260903000537 77 0 0.0 0.0 0.00 0.00 0.00 86 1016.3
20260903000059 77 0 0.0 0.0 0.00 0.00 0.00 86 1016.2
20260902235536 77 0 0.0 0.0 0.00 0.00 0.00 85 1016.3
20260902235035 77 0 0.0 0.0 0.00 0.00 0.00 86 1016.4
20260902234557 77 0 0.0 0.0 0.00 0.00 0.00 86 1016.1
20260902234035 77 0 0.0 0.0 0.00 0.00 0.00 85 1015.9
20260902233535 77 0 0.0 0.0 0.00 0.00 0.00 84 1016.1
20260902233104 77 0 0.0 0.0 0.00 0.00 0.00 84 1016.3
20260902232537 77 0 0.0 0.0 0.00 0.00 0.00 84 1016.6
20260902232038 78 0 0.0 0.0 0.00 0.00 0.00 84 1016.6
20260902231607 78 0 0.0 0.0 0.00 0.00 0.00 84 1016.7
20260902231038 78 0 0.0 0.0 0.00 0.00 0.00 84 1016.7
20260902230537 78 0 0.0 0.0 0.00 0.00 0.00 84 1016.7
20260902230105 78 0 0.0 0.0 0.00 0.00 0.00 82 1017.0
20260902225540 78 0 0.0 0.0 0.00 0.00 0.00 82 1017.0
20260902225041 78 0 0.0 0.0 0.00 0.00 0.00 81 1016.9
20260902224558 78 0 0.0 0.0 0.00 0.00 0.00 81 1016.9
20260902224035 78 0 0.0 0.0 0.00 0.00 0.00 81 1017.0
20260902223535 78 0 0.0 0.0 0.00 0.00 0.00 82 1017.0
20260902223114 78 0 0.0 1.7 0.00 0.00 0.00 82 1017.0
20260902222534 78 0 0.0 2.6 0.00 0.00 0.00 81 1017.2
20260902222038 78 0 0.0 3.5 0.00 0.00 0.00 81 1017.0
20260902221601 78 0 0.9 3.5 0.00 0.00 0.00 81 1017.1
20260902221041 78 78 0.0 2.6 0.00 0.00 0.00 80 1017.0
20260902220538 78 79 0.0 2.6 0.00 0.00 0.00 81 1016.7
20260902215535 78 0 0.0 0.9 0.00 0.00 0.00 83 1016.3
20260902215037 78 0 0.0 0.9 0.00 0.00 0.00 81 1016.5
20260902214557 78 0 0.0 2.6 0.00 0.00 0.00 81 1016.5
20260902214035 78 0 0.0 2.6 0.00 0.00 0.00 79 1016.6
20260902213538 78 0 0.0 0.0 0.00 0.00 0.00 80 1016.3
20260902213107 79 0 0.0 0.0 0.00 0.00 0.00 81 1016.3
20260902212536 78 0 0.0 0.0 0.00 0.00 0.00 79 1016.6
20260902212038 78 0 0.0 0.9 0.00 0.00 0.00 80 1016.6
20260902211600 78 0 0.0 2.6 0.00 0.00 0.00 80 1016.8
20260902211035 78 0 0.0 5.2 0.00 0.00 0.00 80 1016.9
20260902210541 79 55 0.9 5.2 0.00 0.00 0.00 79 1016.8
20260902210100 79 69 0.0 8.7 0.00 0.00 0.00 80 1016.7
20260902205537 79 0 2.6 8.7 0.00 0.00 0.00 79 1017.3
20260902205037 79 41 1.7 8.7 0.00 0.00 0.00 78 1017.2
20260902204635 80 65 3.5 8.7 0.00 0.00 0.00 77 1017.3
20260902204035 80 67 3.5 9.6 0.00 0.00 0.00 77 1017.2
20260902203538 80 66 5.2 9.6 0.00 0.00 0.00 76 1017.1
20260902203104 81 93 4.3 9.6 0.00 0.00 0.00 75 1016.9
20260902202538 81 74 2.6 7.8 0.00 0.00 0.00 76 1017.1
20260902202038 81 37 3.5 10.4 0.00 0.00 0.00 74 1017.4
20260902201601 81 42 4.3 10.4 0.00 0.00 0.00 74 1017.3
20260902201040 81 70 0.9 7.0 0.00 0.00 0.00 75 1017.4